This is the latest recevied weather packets stored in our database for station/object K4OBI. If no packets are shown the sender has not sent any weather packets the latest 10 day(s).
| Time | Temp. | Humidity | Pressure | Rain* | Wind** | Luminosity | Snow |
|---|---|---|---|---|---|---|---|
| 1777568933 | 21.11° C | 55% | 1012.6 hPa | 0 mm | - | - | - |
| 1777568875 | 21.11° C | 55% | 1012.7 hPa | 0 mm | - | - | - |
| 1777568813 | 21.11° C | 61% | 1012.7 hPa | 0 mm | - | - | - |
| 1777568755 | 21.11° C | 61% | 1012.8 hPa | 0 mm | - | - | - |
| 1777568692 | 20.56° C | 59% | 1012.7 hPa | 0 mm | - | - | - |
| 1777568628 | 20.56° C | 60% | 1012.9 hPa | 0 mm | - | - | - |
| 1777568566 | 20.56° C | 56% | 1012.8 hPa | 0 mm | - | - | - |
| 1777568505 | 20.56° C | 56% | 1012.8 hPa | 0 mm | - | - | - |
| 1777568446 | 20.56° C | 54% | 1012.8 hPa | 0 mm | - | - | - |
| 1777568386 | 21.11° C | 55% | 1012.7 hPa | 0 mm | - | - | - |
| 1777568323 | 21.11° C | 54% | 1012.8 hPa | 0 mm | - | - | - |
| 1777568260 | 21.11° C | 57% | 1012.9 hPa | 0 mm | - | - | - |
| 1777568201 | 21.11° C | 57% | 1012.9 hPa | 0 mm | - | - | - |
| 1777568145 | 20.56° C | 56% | 1012.9 hPa | 0 mm | - | - | - |
| 1777568080 | 20.56° C | 57% | 1012.9 hPa | 0 mm | - | - | - |
| 1777568019 | 20.56° C | 57% | 1013 hPa | 0 mm | - | - | - |
| 1777567958 | 20.56° C | 55% | 1013 hPa | 0 mm | - | - | - |
| 1777567898 | 20.56° C | 60% | 1013 hPa | 0 mm | - | - | - |
| 1777567837 | 20.56° C | 60% | 1013 hPa | 0 mm | - | - | - |
| 1777567774 | 20.56° C | 57% | 1013 hPa | 0 mm | - | - | - |
| 1777567708 | 20.56° C | 58% | 1013.1 hPa | 0 mm | - | - | - |
| 1777567649 | 20.56° C | 57% | 1013.1 hPa | 0 mm | - | - | - |
| 1777567587 | 20.56° C | 55% | 1013 hPa | 0 mm | - | - | - |
| 1777567527 | 20.56° C | 55% | 1013 hPa | 0 mm | - | - | - |
| 1777567469 | 20.56° C | 57% | 1013 hPa | 0 mm | - | - | - |
* Rain latest hour (hover to see other rain measurements)
** Current wind speed in m/s (hover to see current wind gust speed)